Location: Clarion
(42.7316°N, 93.7330°W)
Time: 02:33:05
(UTC+00:00)

USA 281 - Pass Details

Date: 22 April 2026
Orbit: 1079 x 1080 km, 106.0° (Epoch: 5 January)

Event Time Altitude Azimuth Distance (km) Brightness Sun altitude
Exits shadow 07:58:47 50° 131° (SE) 1,347 3.5 -30.0°
Maximum altitude 08:00:35 74° 63° (ENE) 1,124 3.3 -29.8°
Drops below altitude 10° 08:07:08 10° 340° (NNW) 2,929 5.9 -29.2°
Sets 08:09:40 0° 339° (NNW) 3,888 6.6 -28.9°
